{"data":{"norad_id":52343,"epoch":"2026-05-24T16:56:25.022688Z","epoch_age_seconds":93726,"freshness":"FRESH","line1":"1 52343U 22045N   26144.70584517 -.00000256  00000+0  19773-5 0  9999","line2":"2 52343  53.2126 227.8718 0000879  73.8418 286.2671 15.08839146227129","mean_motion":15.08839146,"eccentricity":8.79e-5,"inclination_deg":53.2126,"raan_deg":227.8718,"arg_perigee_deg":73.8418,"mean_anomaly_deg":286.2671,"bstar":1.9773e-6,"rev_number":22712,"period_min":95.437608695235,"perigee_km":539.13791738605,"apogee_km":540.35408121733,"semimajor_km":6917.8829993017,"source":"CELESTRAK","updated_at":"2026-05-25T13:38:17.114787Z"}}